| time (UTC) | temp F | wind direction | speed knots | gust knots | rain 1hr in | rain 24hr in | rain mn in | humidity % | barometer mb |
| 20260904094522 | 66 | 319 | 0.0 | 0.0 | 0.00 | 0.01 | 0.00 | 92 | 1012.8 |
| 20260904093021 | 66 | 319 | 0.0 | 0.0 | 0.00 | 0.01 | 0.00 | 92 | 1012.9 |
| 20260904091521 | 66 | 319 | 0.0 | 0.0 | 0.00 | 0.01 | 0.00 | 92 | 1012.8 |
| 20260904090023 | 66 | 319 | 0.0 | 0.0 | 0.00 | 0.03 | 0.01 | 92 | 1012.8 |
| 20260904084519 | 67 | 319 | 0.0 | 0.0 | 0.00 | 0.03 | 0.01 | 92 | 1012.7 |
| 20260904083020 | 66 | 319 | 0.0 | 0.0 | 0.00 | 0.03 | 0.01 | 92 | 1012.6 |
| 20260904081519 | 66 | 319 | 0.0 | 0.0 | 0.00 | 0.03 | 0.01 | 92 | 1012.4 |
| 20260904080020 | 66 | 319 | 0.0 | 1.7 | 0.00 | 0.05 | 0.01 | 92 | 1012.4 |
| 20260904074522 | 65 | 319 | 0.0 | 0.0 | 0.00 | 0.05 | 0.01 | 92 | 1012.4 |
| 20260904073022 | 65 | 319 | 0.0 | 0.0 | 0.00 | 0.05 | 0.01 | 92 | 1012.5 |
| 20260904071530 | 65 | 319 | 0.0 | 0.0 | 0.00 | 0.05 | 0.01 | 92 | 1012.4 |
| 20260904070019 | 66 | 319 | 0.0 | 0.0 | 0.00 | 0.11 | 0.01 | 92 | 1012.1 |
| 20260904064516 | 66 | 319 | 0.0 | 0.0 | 0.00 | 0.11 | 0.01 | 92 | 1011.8 |
| 20260904063022 | 67 | 319 | 0.0 | 0.0 | 0.00 | 0.11 | 0.01 | 92 | 1011.5 |
| 20260904061519 | 67 | 319 | 0.0 | 0.0 | 0.00 | 0.11 | 0.01 | 91 | 1011.7 |
| 20260904060017 | 67 | 319 | 0.0 | 0.0 | 0.00 | 0.12 | 0.01 | 91 | 1011.9 |
| 20260904054516 | 67 | 319 | 0.0 | 0.0 | 0.00 | 0.12 | 0.01 | 91 | 1011.9 |
| 20260904053016 | 67 | 319 | 0.0 | 0.0 | 0.00 | 0.12 | 0.01 | 90 | 1012.1 |
| 20260904051515 | 68 | 319 | 0.0 | 0.0 | 0.00 | 0.12 | 0.01 | 90 | 1012.2 |
| 20260904050015 | 68 | 319 | 0.0 | 0.0 | 0.00 | 0.27 | 0.01 | 89 | 1012.2 |
| 20260904044530 | 69 | 319 | 0.0 | 0.0 | 0.00 | 0.27 | 0.01 | 88 | 1012.2 |
| 20260904043014 | 69 | 319 | 0.0 | 0.9 | 0.00 | 0.27 | 0.01 | 88 | 1012.0 |
| 20260904041515 | 69 | 319 | 0.0 | 2.6 | 0.00 | 0.27 | 0.01 | 88 | 1012.1 |
| 20260904040014 | 70 | 323 | 0.0 | 0.0 | 0.00 | 0.28 | 0.01 | 88 | 1012.1 |
| 20260904034513 | 70 | 323 | 0.0 | 1.7 | 0.00 | 0.28 | 0.01 | 87 | 1012.1 |
| 20260904033013 | 70 | 323 | 0.0 | 2.6 | 0.00 | 0.28 | 0.01 | 87 | 1012.2 |
| 20260904031515 | 71 | 323 | 0.0 | 0.0 | 0.00 | 0.28 | 0.01 | 86 | 1012.6 |
| 20260904030016 | 71 | 323 | 0.0 | 1.7 | 0.00 | 0.28 | 0.01 | 87 | 1012.3 |
| 20260904024515 | 71 | 325 | 0.0 | 0.0 | 0.00 | 0.28 | 0.01 | 88 | 1012.4 |
| 20260904023012 | 71 | 325 | 0.0 | 0.0 | 0.00 | 0.28 | 0.01 | 89 | 1011.7 |
| 20260904021517 | 71 | 325 | 0.0 | 0.0 | 0.00 | 0.53 | 0.01 | 90 | 1011.9 |
| 20260904020012 | 71 | 325 | 0.0 | 0.0 | 0.00 | 0.53 | 0.01 | 89 | 1012.2 |
| 20260904014518 | 71 | 325 | 0.0 | 0.0 | 0.00 | 0.53 | 0.01 | 88 | 1012.2 |
| 20260904013011 | 71 | 325 | 0.0 | 0.0 | 0.00 | 0.53 | 0.01 | 88 | 1012.3 |
| 20260904011524 | 72 | 325 | 0.0 | 0.0 | 0.00 | 0.53 | 0.01 | 87 | 1012.4 |
| 20260904010013 | 73 | 325 | 0.0 | 0.0 | 0.00 | 0.53 | 0.01 | 84 | 1012.4 |
| 20260904004510 | 73 | 325 | 0.0 | 0.0 | 0.00 | 0.53 | 0.01 | 84 | 1012.3 |
| 20260904003009 | 73 | 325 | 0.0 | 0.0 | 0.00 | 0.53 | 0.01 | 86 | 1012.2 |
| 20260904001510 | 73 | 325 | 0.0 | 0.0 | 0.00 | 0.53 | 0.01 | 84 | 1012.5 |
| 20260904000009 | 73 | 325 | 0.0 | 0.0 | 0.00 | 0.53 | 0.01 | 85 | 1012.2 |
| 20260903234509 | 74 | 325 | 0.0 | 0.0 | 0.00 | 0.53 | 0.01 | 83 | 1012.1 |
| 20260903233009 | 75 | 325 | 0.0 | 0.0 | 0.00 | 0.53 | 0.01 | 79 | 1012.1 |
| 20260903231510 | 75 | 325 | 0.0 | 0.0 | 0.00 | 0.53 | 0.01 | 80 | 1012.3 |
| 20260903230010 | 76 | 325 | 0.0 | 0.0 | 0.00 | 0.53 | 0.01 | 80 | 1012.4 |
| 20260903224521 | 77 | 325 | 0.0 | 0.0 | 0.00 | 0.53 | 0.01 | 79 | 1012.5 |
| 20260903223007 | 77 | 325 | 0.0 | 0.0 | 0.00 | 0.53 | 0.01 | 79 | 1012.2 |
| 20260903221510 | 78 | 325 | 1.7 | 5.2 | 0.00 | 0.53 | 0.01 | 78 | 1011.7 |
| 20260903220012 | 80 | 323 | 1.7 | 8.7 | 0.00 | 0.53 | 0.01 | 77 | 1011.4 |
| 20260903214507 | 82 | 313 | 1.7 | 4.3 | 0.00 | 0.53 | 0.01 | 70 | 1011.2 |
| 20260903213011 | 83 | 294 | 0.0 | 4.3 | 0.00 | 0.53 | 0.01 | 67 | 1011.1 |
| 20260903211515 | 84 | 294 | 1.7 | 7.8 | 0.00 | 0.53 | 0.01 | 64 | 1011.2 |
| 20260903210006 | 86 | 317 | 3.5 | 5.2 | 0.00 | 0.53 | 0.01 | 63 | 1011.1 |
| 20260903204506 | 85 | 312 | 0.0 | 6.1 | 0.00 | 0.53 | 0.01 | 65 | 1011.1 |
| 20260903203004 | 85 | 333 | 1.7 | 7.8 | 0.00 | 0.53 | 0.01 | 66 | 1011.2 |
| 20260903201505 | 84 | 299 | 0.0 | 4.3 | 0.00 | 0.53 | 0.01 | 65 | 1011.3 |
| 20260903200003 | 85 | 290 | 1.7 | 4.3 | 0.00 | 0.53 | 0.01 | 61 | 1011.6 |
| 20260903194502 | 86 | 246 | 0.0 | 7.8 | 0.00 | 0.53 | 0.01 | 59 | 1011.7 |
| 20260903193101 | 86 | 306 | 2.6 | 7.0 | 0.00 | 0.53 | 0.01 | 59 | 1011.7 |
| 20260903191600 | 87 | 309 | 4.3 | 7.8 | 0.00 | 0.53 | 0.01 | 57 | 1011.8 |
| 20260903190100 | 86 | 301 | 1.7 | 7.8 | 0.00 | 0.54 | 0.01 | 58 | 1012.0 |
| 20260903184603 | 86 | 279 | 2.6 | 8.7 | 0.00 | 0.54 | 0.01 | 58 | 1012.1 |
| 20260903183054 | 85 | 148 | 0.9 | 7.0 | 0.00 | 0.54 | 0.01 | 61 | 1012.2 |
| 20260903181552 | 84 | 308 | 0.0 | 3.5 | 0.00 | 0.54 | 0.01 | 64 | 1012.3 |
| 20260903180100 | 84 | 266 | 0.0 | 5.2 | 0.00 | 0.54 | 0.01 | 67 | 1012.6 |
| 20260903174605 | 84 | 327 | 0.0 | 3.5 | 0.00 | 0.54 | 0.01 | 66 | 1012.7 |
| 20260903173044 | 83 | 325 | 1.7 | 7.0 | 0.00 | 0.54 | 0.01 | 67 | 1013.0 |
| 20260903171541 | 82 | 311 | 1.7 | 7.8 | 0.00 | 0.54 | 0.01 | 69 | 1013.0 |
| 20260903170103 | 81 | 327 | 2.6 | 6.1 | 0.00 | 0.54 | 0.01 | 71 | 1013.0 |
| 20260903164548 | 81 | 322 | 0.9 | 8.7 | 0.00 | 0.54 | 0.01 | 71 | 1013.2 |
| 20260903163039 | 81 | 305 | 1.7 | 5.2 | 0.00 | 0.54 | 0.01 | 70 | 1013.5 |
| 20260903161536 | 80 | 309 | 1.7 | 5.2 | 0.00 | 0.54 | 0.01 | 72 | 1013.7 |
| 20260903160034 | 78 | 294 | 1.7 | 6.1 | 0.00 | 0.54 | 0.01 | 75 | 1013.9 |
| 20260903154532 | 78 | 296 | 0.0 | 4.3 | 0.00 | 0.54 | 0.01 | 76 | 1014.0 |
| 20260903153027 | 76 | 248 | 0.0 | 7.8 | 0.00 | 0.54 | 0.01 | 78 | 1014.1 |
| 20260903151527 | 76 | 308 | 1.7 | 5.2 | 0.00 | 0.54 | 0.01 | 77 | 1014.3 |
| 20260903150028 | 75 | 320 | 1.7 | 6.1 | 0.00 | 0.55 | 0.01 | 79 | 1014.5 |
| 20260903144524 | 75 | 312 | 1.7 | 6.1 | 0.00 | 0.55 | 0.01 | 80 | 1014.1 |
| 20260903143023 | 74 | 306 | 2.6 | 6.1 | 0.00 | 0.55 | 0.01 | 81 | 1014.1 |
| 20260903141522 | 73 | 297 | 0.0 | 4.3 | 0.00 | 0.55 | 0.01 | 84 | 1014.0 |
| 20260903140017 | 72 | 46 | 0.0 | 1.7 | 0.00 | 0.68 | 0.01 | 86 | 1014.2 |
| 20260903134512 | 70 | 169 | 0.0 | 6.1 | 0.00 | 0.68 | 0.01 | 90 | 1014.2 |
| 20260903133009 | 69 | 331 | 0.0 | 1.7 | 0.00 | 0.68 | 0.01 | 90 | 1014.5 |
| 20260903131507 | 68 | 323 | 0.0 | 2.6 | 0.00 | 0.70 | 0.01 | 92 | 1014.8 |
| 20260903130004 | 67 | 293 | 0.0 | 0.0 | 0.00 | 0.70 | 0.01 | 92 | 1015.2 |
| 20260903124504 | 66 | 293 | 0.0 | 6.1 | 0.00 | 0.70 | 0.01 | 92 | 1015.2 |
| 20260903123003 | 66 | 44 | 0.0 | 0.9 | 0.00 | 0.70 | 0.01 | 92 | 1015.3 |
| 20260903121604 | 66 | 44 | 0.0 | 2.6 | 0.00 | 0.70 | 0.01 | 92 | 1014.9 |
| 20260903120059 | 66 | 42 | 0.0 | 1.7 | 0.00 | 0.70 | 0.01 | 93 | 1014.8 |
| 20260903114604 | 66 | 42 | 0.0 | 0.0 | 0.01 | 0.70 | 0.01 | 93 | 1014.8 |
| 20260903113058 | 66 | 42 | 0.0 | 0.0 | 0.01 | 0.70 | 0.01 | 93 | 1014.4 |
| 20260903111623 | 65 | 42 | 0.0 | 0.0 | 0.01 | 0.70 | 0.01 | 93 | 1014.3 |
| 20260903110108 | 65 | 42 | 0.0 | 0.0 | 0.01 | 0.70 | 0.01 | 93 | 1014.2 |
| 20260903104622 | 65 | 42 | 0.0 | 0.0 | 0.00 | 0.69 | 0.00 | 92 | 1013.9 |
| 20260903103054 | 65 | 42 | 0.0 | 0.0 | 0.00 | 0.69 | 0.00 | 93 | 1013.6 |
| 20260903101551 | 66 | 42 | 0.0 | 0.9 | 0.00 | 0.69 | 0.00 | 93 | 1013.5 |
| 20260903100050 | 66 | 42 | 0.0 | 0.0 | 0.00 | 0.69 | 0.00 | 92 | 1013.2 |